Location: Balzfeld
(49.2694°N, 8.7898°E)
Time: 22:42:17
(UTC+00:00)

Daily predictions for brighter satellites

Satellite Brightness Start Highest point End
(mag) Time Altitude Azimuth Time Altitude Azimuth Time Altitude Azimuth
Cosmos 1802 Rocket 4.1 17:00:35 10° N 17:07:02 84° E 17:13:28 10° S
IRS-P3 4.1 17:02:24 10° SSE 17:07:39 65° ENE 17:12:57 10° N
Cosmos 2285 Rocket 4.4 17:02:33 10° NNW 17:08:42 45° ENE 17:14:48 10° SE
Cosmos 2233 Rocket 4.1 17:06:59 10° N 17:13:12 61° ENE 17:19:26 10° SSE
Cosmos 2219 Rocket 3.8 17:08:21 10° NW 17:13:32 40° WSW 17:18:41 10° S
SJ-6B 4.3 17:15:07 10° E 17:16:47 13° ENE 17:18:28 10° NNE
Cosmos 1867 3.7 17:13:20 10° SW 17:18:46 81° NW 17:24:16 10° NE
CARTOSAT-1 4.3 17:15:10 10° SE 17:18:50 30° ENE 17:22:31 10° N
USA 267 3.4 17:13:42 10° NE 17:20:16 83° NNW 17:26:50 10° WSW
Cosmos 1725 Rocket 4.1 17:14:26 10° N 17:20:42 86° W 17:26:59 10° S
Aureole 3 Rocket 3.5 17:18:22 10° N 17:22:01 30° ENE 17:25:01 10° SE
SJ-12 4.2 17:19:44 10° S 17:23:32 66° WSW 17:27:19 10° NNW
NOSS 0 Rocket 3.9 17:17:26 10° NNW 17:23:43 75° ENE 17:29:57 10° SE
Cosmos 2322 4.0 17:19:25 10° NNW 17:25:09 78° WSW 17:30:52 10° SSE
Cosmos 192 4.3 17:20:53 10° NNW 17:25:48 89° ENE 17:30:40 10° SSE
UNK 4.4 17:22:04 10° N 17:26:35 60° WNW 17:31:04 10° SSW
SL-08 R/B 4.5 17:21:03 10° N 17:27:15 86° E 17:33:21 10° S
Cosmos 2151 Rocket 3.6 17:26:29 10° N 17:31:01 86° E 17:35:31 10° S
SL-16 R/B 3.5 17:27:21 10° N 17:31:39 22° NE 17:35:23 12° E
Cosmos 1814 Rocket 4.1 17:27:22 10° SSW 17:32:39 82° WNW 17:37:55 10° NNE
Cosmos 2227 Rocket 3.6 17:30:05 10° SE 17:33:36 17° E 17:36:56 11° ENE
SAR-Lupe-1 4.1 17:31:42 10° SSE 17:35:16 88° WSW 17:38:52 10° NNW
Cosmos 1607 3.9 17:31:55 10° SW 17:38:03 90° S 17:44:18 10° NE
Cosmos 1315 Rocket 3.3 17:34:26 10° NNW 17:38:11 60° W 17:41:56 10° S
ATLAS 5 CENTAUR R/B 3.7 17:34:22 10° WNW 17:38:18 32° WSW 17:43:00 10° S
Cosmos 1125 Rocket 3.4 17:33:15 10° NNW 17:38:27 73° ENE 17:43:38 10° SSE
Cosmos 2061 Rocket 4.0 17:32:03 10° N 17:38:29 80° E 17:44:48 10° SSE
SL-16 R/B 4.1 17:36:25 10° N 17:41:55 35° WNW 17:47:25 10° WSW
ARIANE 6 FM1 Upper Stage 4.2 17:39:50 10° NNW 17:42:45 19° NNE 17:44:44 14° ENE
Cosmos 1455 Rocket 3.4 17:38:53 10° N 17:42:57 39° ENE 17:46:57 10° SE
CZ-4C R/B 1.8 17:39:41 10° SW 17:43:56 90° ESE 17:49:27 10° NE
NOSS 3-3 (C) 3.7 17:39:18 10° SSW 17:44:27 69° SE 17:50:39 10° NE
Cosmos 1975 Rocket 4.2 17:41:43 10° SE 17:44:58 21° E 17:48:12 10° NE
BREEZE-M DEB (TANK) 3.5 17:41:11 10° WNW 17:45:24 71° SSW 17:52:32 10° ESE
USA 306 3.5 17:43:21 10° WNW 17:45:49 26° SW 17:47:32 10° SSE
YAOGAN 1 2.5 17:42:10 10° SSE 17:46:26 88° E 17:50:43 10° NNW
Cosmos 158 Rocket 4.2 17:42:41 10° SSW 17:47:29 65° WNW 17:52:22 10° NNE
SeaSat 1 3.3 17:43:38 10° SSE 17:48:23 52° WSW 17:53:12 10° NW
SAR-Lupe-4 4.4 17:47:56 10° S 17:51:27 54° W 17:54:58 10° NNW
Cosmos 1464 Rocket 4.5 17:45:40 10° N 17:51:36 38° ENE 17:57:25 10° SE
NOAA 6 4.0 17:49:13 10° SSE 17:54:19 69° ENE 17:59:28 10° N
Spot 4 Rocket 4.0 17:49:47 10° SSE 17:54:53 84° ENE 18:00:02 10° NNW
COSMO-SKYMED 1 2.3 17:52:00 10° NNE 17:56:08 67° ESE 18:00:12 10° S
Cosmos 2228 3.7 17:52:46 10° N 17:56:31 31° ENE 18:00:15 10° SE
CZ-4 R/B 3.2 17:58:01 13° NE 17:58:01 13° NE 17:58:55 10° NNE
PSLV R/B 3.3 17:52:55 10° SSE 17:57:02 73° ENE 18:01:08 10° N
Okean 1 Rocket 3.2 17:52:50 10° NNW 17:57:16 78° W 18:01:37 10° S
USA 234 4.4 17:52:11 10° SSE 17:58:19 42° SW 18:04:31 10° WNW
Okean 2 Rocket 3.5 17:55:13 10° NNW 17:59:35 64° W 18:03:54 10° S
Cosmos 2221 Rocket 3.5 17:55:21 10° S 17:59:48 85° E 18:04:20 10° N
ARIANE 5 R/B 4.4 17:56:06 10° SSW 18:00:43 33° W 18:05:18 10° NNW
SPOT 5 3.9 18:00:21 19° E 18:02:36 27° ENE 18:06:49 10° N
Cosmos 773 Rocket 4.4 17:58:25 10° S 18:03:17 40° ESE 18:08:12 10° NE
BREEZE-M (TANK) 3.0 18:04:37 10° W 18:07:08 55° SSW 18:12:02 14° ESE
Radarsat Rocket 4.1 18:02:11 10° SSE 18:08:01 81° WSW 18:14:23 10° NNW
CZ-2D R/B 3.9 18:06:26 10° S 18:10:18 59° W 18:14:16 10° NNW
NOSS 3-3 (A) 3.9 18:06:52 10° SW 18:12:06 74° NW 18:18:19 11° NE
Sich 1 Rocket 4.3 18:08:17 10° NNW 18:12:46 59° W 18:17:14 10° S
CSL-04 Rocket 4.1 18:11:33 19° ESE 18:14:43 36° ENE 18:19:30 10° N
IRAS Rocket 4.2 18:11:03 10° SSE 18:16:36 70° ENE 18:22:13 10° NNW
Cosmos 2297 Rocket 2.1 18:12:02 10° SSW 18:17:41 79° ESE 18:23:23 10° NNE
Tiangong 0.1 18:16:53 10° SSW 18:18:42 14° SSE 18:18:49 14° SSE
Cosmos 1025 Rocket 4.1 18:15:50 10° SSW 18:20:00 47° WNW 18:24:13 10° N
Cosmos 836 Rocket 4.4 18:15:27 10° S 18:20:40 66° ESE 18:25:55 10° NNE
Orbus 7S? 4.2 18:13:25 10° WNW 18:22:32 80° NNE 18:24:45 30° ESE
Resurs 01 Rocket 1.6 18:18:10 10° SSE 18:22:33 85° WSW 18:27:00 10° NNW
Cosmos 2150 Rocket 3.9 18:17:56 10° NNW 18:23:05 64° ENE 18:27:13 16° SE
Cosmos 2298 Rocket 4.0 18:20:10 10° NNW 18:25:27 64° ENE 18:29:31 17° SE
Cosmos 2344 4.0 18:23:05 10° S 18:30:12 37° ESE 18:32:55 28° ENE
NOSS 3-4 (A) 3.8 18:24:03 10° NW 18:30:44 90° SW 18:37:51 13° SE
NOSS 3-4 (C) 3.8 18:24:18 10° NW 18:31:02 90° NE 18:38:02 14° SE
Cosmos 1782 3.0 18:28:47 10° N 18:31:36 42° NE 18:31:36 42° NE
BREEZE-M DEB (TANK) 4.5 18:08:28 10° WSW 18:33:13 68° S 18:36:50 31° E
CRYOSAT 2 4.4 18:30:47 10° N 18:35:42 83° W 18:40:35 10° S
Helios 1A Rocket 4.2 18:39:28 20° S 18:39:28 20° S 18:40:39 10° S
CZ-4B R/B 3.7 18:43:54 64° ENE 18:43:54 64° ENE 18:47:46 10° N
Lacrosse 5 rocket 2.6 18:41:27 10° WNW 18:44:28 25° N 18:44:56 24° N
ATLAS 2AS CENTAUR R/B 4.2 18:42:14 10° WNW 18:47:42 24° N 18:51:31 16° NE
Cosmos 2263 Rocket 2.9 18:42:38 10° S 18:46:41 34° SE 18:46:41 34° SE
Terra 3.4 18:51:38 20° NNE 18:51:38 20° NNE 18:53:32 10° N
SJ-6B 3.1 18:46:44 12° S 18:49:44 54° W 18:53:09 10° NNW
Cosmos 2237 Rocket 3.2 18:45:47 10° NW 18:51:12 47° WSW 18:56:36 10° S
Cosmos 44 Rocket 3.2 18:56:05 10° SW 19:01:01 89° NW 19:02:15 53° NE
ERS-1 Rocket 3.9 19:04:25 33° NNE 19:04:25 33° NNE 19:07:33 10° N
USA 267 3.8 18:59:48 28° NE 19:02:57 49° N 19:09:12 10° W
Meteor 1-31 Rocket 4.2 19:06:45 27° NNW 19:06:45 27° NNW 19:08:27 10° NNW
Cosmos 1816 Rocket 4.4 18:58:59 10° S 19:05:08 88° E 19:11:25 10° N
Cosmos 2034 Rocket 3.8 19:02:37 10° N 19:08:50 87° E 19:13:44 17° S
ADEOS 4.0 19:12:55 47° NNE 19:12:55 47° NNE 19:16:57 10° N
Cosmos 1544 Rocket 4.1 19:11:03 10° N 19:14:22 51° NNW 19:14:22 51° NNW
SL-16 R/B 2.1 19:10:53 10° NNW 19:16:35 88° ENE 19:17:18 70° SE
Cosmos 2227 Rocket 2.1 19:11:13 10° SSW 19:16:52 85° WNW 19:18:49 43° NNE
Cosmos 1634 Rocket 4.0 19:10:56 10° N 19:17:04 60° ENE 19:17:04 60° ENE
Cosmos 1975 Rocket 4.1 19:18:14 10° SSW 19:22:23 43° WNW 19:26:32 10° N
ARIANE 6 FM1 Upper Stage 4.0 19:18:27 10° NW 19:20:45 33° NNW 19:20:45 33° NNW
CZ-4 R/B 3.6 19:33:01 18° NNW 19:33:01 18° NNW 19:34:08 10° NNW
CZ-4C R/B 3.7 19:28:49 10° W 19:32:59 27° NNW 19:35:03 22° NNE
CZ-4B R/B 3.6 19:40:18 52° NNW 19:40:18 52° NNW 19:44:15 10° NNW
SPOT 5 3.7 19:39:23 43° SW 19:40:15 48° W 19:45:10 10° NNW
MOS 1 4.4 19:43:59 70° NNW 19:43:59 70° NNW 19:49:01 10° NNW
Cosmos 2297 Rocket 4.2 19:57:47 10° W 20:02:22 25° NW 20:06:06 13° N
Cosmos 1943 4.3 19:59:57 10° NNW 20:03:25 38° NNW 20:03:25 38° NNW
Terra 4.3 20:30:15 17° NNW 20:30:15 17° NNW 20:31:22 10° NNW
Cosmos 2263 Rocket 4.1 20:26:16 10° SW 20:28:28 23° WSW 20:28:28 23° WSW
ATLAS 2AS CENTAUR R/B 4.2 20:34:47 10° NW 20:38:56 27° N 20:38:56 27° N
Cosmos 2344 4.0 20:36:47 10° WSW 20:43:00 52° WNW 20:43:00 52° WNW
USA 267 4.3 20:47:08 39° NNW 20:47:08 39° NNW 20:51:34 10° WNW
Cosmos 2227 Rocket 4.4 20:57:32 10° W 21:00:43 20° NW 21:00:43 20° NW
